Location: Ellingshausen
(50.5460°N, 10.4723°E)
Time: 20:15:45
(UTC+00:00)

Cosmos 468 Rocket - Pass Details

Date: 18 January 2026
Orbit: 740 x 774 km, 74.0° (Epoch: 16 February)

Event Time Altitude Azimuth Distance (km) Brightness Sun altitude
Exits shadow 05:33:19 - 337° (NNW) 2,435 6.2 -15.0°
Reaches altitude 10° 05:33:45 10° 337° (NNW) 2,268 6.1 -14.9°
Maximum altitude 05:38:54 84° 66° (ENE) 759 4.0 -14.1°
Drops below altitude 10° 05:44:03 10° 155° (SSE) 2,270 7.0 -13.3°
Sets 05:46:25 0° 156° (SSE) 3,195 7.9 -13.0°
